• In Czech Republic
  • List of Countries
  • For 7 days
  • Water Temperature
  • Satellite Maps
  • Weather Map
  • Weather Widgets
  • user-avatar
    Login

    Hourly Weather Belfast

    Today, 16 December, Saturday

    Time Temperature Precipitation Wind Pressure Humidity
    00:00 +1°C° 0 mm 6 mps 760 mmHg 80%
    01:00 +1°C° 0 mm 6 mps 760 mmHg 81%
    02:00 +1°C° 0 mm 5 mps 760 mmHg 83%
    03:00 +1°C° 0 mm 5 mps 760 mmHg 84%
    04:00 +2°C° 0.2 mm 6 mps 760 mmHg 85%
    05:00 +2°C° 0.2 mm 7 mps 760 mmHg 85%
    06:00 +2°C° 0 mm 6 mps 760 mmHg 88%
    07:00 +2°C° 0 mm 6 mps 760 mmHg 88%
    08:00 +2°C° 0 mm 6 mps 761 mmHg 88%
    09:00 +2°C° 0 mm 6 mps 761 mmHg 88%
    10:00 +3°C° 0 mm 6 mps 761 mmHg 84%
    11:00 +5°C° 0 mm 5 mps 762 mmHg 81%
    12:00 +5°C° 0 mm 5 mps 762 mmHg 78%
    13:00 +5°C° 0 mm 5 mps 763 mmHg 78%
    14:00 +5°C° 0 mm 5 mps 763 mmHg 79%
    15:00 +5°C° 0 mm 5 mps 763 mmHg 79%
    16:00 +5°C° 0 mm 5 mps 763 mmHg 82%
    17:00 +4°C° 0 mm 4 mps 764 mmHg 84%
    18:00 +4°C° 0 mm 4 mps 764 mmHg 87%
    19:00 +4°C° 0 mm 3 mps 764 mmHg 89%
    20:00 +4°C° 0 mm 3 mps 764 mmHg 90%
    21:00 +4°C° 0 mm 3 mps 765 mmHg 92%
    22:00 +4°C° 0 mm 3 mps 764 mmHg 92%
    23:00 +4°C° 0 mm 4 mps 764 mmHg 93%

    Tomorrow, 17 December, Sunday

    Time Temperature Precipitation Wind Pressure Humidity
    00:00 +4°C° 0 mm 4 mps 764 mmHg 93%
    01:00 +5°C° 0.1 mm 5 mps 763 mmHg 94%
    02:00 +5°C° 0.1 mm 5 mps 763 mmHg 94%
    03:00 +5°C° 0.1 mm 6 mps 763 mmHg 94%
    04:00 +5°C° 0.8 mm 6 mps 762 mmHg 94%
    05:00 +6°C° 0.8 mm 7 mps 761 mmHg 94%
    06:00 +6°C° 0.8 mm 8 mps 761 mmHg 93%
    07:00 +7°C° 1.1 mm 8 mps 761 mmHg 93%
    08:00 +7°C° 1.1 mm 8 mps 760 mmHg 93%
    09:00 +9°C° 1.1 mm 8 mps 760 mmHg 93%
    10:00 +9°C° 0.2 mm 8 mps 760 mmHg 93%
    11:00 +9°C° 0.2 mm 7 mps 761 mmHg 93%
    12:00 +9°C° 0.2 mm 7 mps 761 mmHg 92%
    13:00 +9°C° 0 mm 7 mps 761 mmHg 89%
    14:00 +8°C° 0 mm 7 mps 762 mmHg 86%
    15:00 +7°C° 0 mm 6 mps 762 mmHg 83%
    16:00 +7°C° 0 mm 6 mps 763 mmHg 84%
    17:00 +6°C° 0 mm 5 mps 763 mmHg 84%
    18:00 +5°C° 0 mm 4 mps 764 mmHg 85%
    19:00 +5°C° 0 mm 4 mps 765 mmHg 87%
    20:00 +5°C° 0 mm 3 mps 765 mmHg 88%
    21:00 +4°C° 0 mm 3 mps 766 mmHg 89%
    22:00 +4°C° 0 mm 3 mps 766 mmHg 89%
    23:00 +4°C° 0 mm 3 mps 767 mmHg 90%

    Day after tomorrow, 18 December, Monday

    Time Temperature Precipitation Wind Pressure Humidity
    00:00 +4°C° 0 mm 3 mps 767 mmHg 91%
    01:00 +5°C° 0 mm 2 mps 767 mmHg 91%
    02:00 +4°C° 0 mm 2 mps 767 mmHg 91%
    03:00 +4°C° 0 mm 2 mps 768 mmHg 90%
    04:00 +4°C° 0 mm 2 mps 768 mmHg 91%
    05:00 +4°C° 0 mm 2 mps 768 mmHg 91%
    06:00 +3°C° 0 mm 3 mps 768 mmHg 91%
    07:00 +3°C° 0 mm 3 mps 768 mmHg 91%
    08:00 +3°C° 0 mm 3 mps 768 mmHg 91%
    09:00 +3°C° 0 mm 4 mps 769 mmHg 91%
    10:00 +5°C° 0 mm 4 mps 769 mmHg 91%
    11:00 +6°C° 0 mm 4 mps 769 mmHg 91%
    12:00 +7°C° 0 mm 4 mps 768 mmHg 92%
    13:00 +7°C° 0 mm 4 mps 768 mmHg 93%
    14:00 +8°C° 0 mm 4 mps 768 mmHg 94%
    15:00 +8°C° 0 mm 4 mps 768 mmHg 95%
    16:00 +8°C° 0 mm 4 mps 768 mmHg 96%
    17:00 +8°C° 0 mm 4 mps 768 mmHg 97%
    18:00 +8°C° 0 mm 4 mps 768 mmHg 97%
    19:00 +10°C° 0 mm 4 mps 768 mmHg 97%
    20:00 +10°C° 0 mm 4 mps 769 mmHg 97%
    21:00 +10°C° 0 mm 4 mps 769 mmHg 97%
    22:00 +11°C° 0.1 mm 4 mps 769 mmHg 97%
    23:00 +11°C° 0.1 mm 4 mps 769 mmHg 97%

    19 December, Tuesday

    Time Temperature Precipitation Wind Pressure Humidity
    00:00 +11°C° 0.1 mm 4 mps 769 mmHg 97%
    01:00 +11°C° 0 mm 4 mps 769 mmHg 96%
    02:00 +11°C° 0 mm 4 mps 768 mmHg 96%
    03:00 +11°C° 0 mm 4 mps 768 mmHg 96%
    04:00 +11°C° 0 mm 4 mps 768 mmHg 96%
    05:00 +10°C° 0 mm 5 mps 768 mmHg 95%
    06:00 +10°C° 0 mm 5 mps 768 mmHg 95%
    07:00 +10°C° 0 mm 5 mps 769 mmHg 95%
    08:00 +10°C° 0 mm 5 mps 769 mmHg 95%
    09:00 +9°C° 0 mm 5 mps 769 mmHg 95%
    10:00 +10°C° 0 mm 6 mps 769 mmHg 93%
    11:00 +10°C° 0 mm 6 mps 769 mmHg 92%
    12:00 +11°C° 0 mm 6 mps 769 mmHg 90%
    13:00 +11°C° 0 mm 6 mps 769 mmHg 90%
    14:00 +11°C° 0 mm 6 mps 769 mmHg 90%
    15:00 +13°C° 0 mm 6 mps 769 mmHg 90%
    16:00 +13°C° 0 mm 6 mps 769 mmHg 91%
    17:00 +13°C° 0 mm 5 mps 769 mmHg 92%
    18:00 +12°C° 0 mm 5 mps 769 mmHg 94%
    19:00 +12°C° 0.1 mm 4 mps 770 mmHg 95%
    20:00 +12°C° 0.1 mm 4 mps 770 mmHg 95%
    21:00 +11°C° 0.1 mm 3 mps 771 mmHg 96%
    22:00 +11°C° 0.3 mm 3 mps 771 mmHg 96%
    23:00 +10°C° 0.3 mm 2 mps 771 mmHg 95%

    20 December, Wednesday

    Time Temperature Precipitation Wind Pressure Humidity
    00:00 +10°C° 0.3 mm 2 mps 771 mmHg 95%
    01:00 +10°C° 0.4 mm 2 mps 771 mmHg 94%
    02:00 +10°C° 0.4 mm 3 mps 770 mmHg 94%
    03:00 +10°C° 0.4 mm 3 mps 770 mmHg 93%
    04:00 +10°C° 0.5 mm 4 mps 770 mmHg 94%
    05:00 +10°C° 0.5 mm 5 mps 770 mmHg 94%
    06:00 +10°C° 0.5 mm 6 mps 769 mmHg 94%
    07:00 +10°C° 0.1 mm 6 mps 769 mmHg 93%
    08:00 +11°C° 0.1 mm 7 mps 769 mmHg 92%
    09:00 +11°C° 0.1 mm 7 mps 769 mmHg 90%
    10:00 +11°C° 0.4 mm 8 mps 769 mmHg 90%
    11:00 +11°C° 0.4 mm 8 mps 769 mmHg 90%
    12:00 +11°C° 0.4 mm 8 mps 769 mmHg 90%
    13:00 +11°C° 0.1 mm 8 mps 769 mmHg 90%
    14:00 +12°C° 0.1 mm 7 mps 768 mmHg 90%
    15:00 +12°C° 0.1 mm 7 mps 768 mmHg 91%
    16:00 +11°C° 0.1 mm 6 mps 768 mmHg 91%
    17:00 +11°C° 0.1 mm 6 mps 769 mmHg 92%
    18:00 +12°C° 0.1 mm 5 mps 769 mmHg 92%
    19:00 +12°C° 0.1 mm 5 mps 769 mmHg 92%
    20:00 +12°C° 0.1 mm 5 mps 769 mmHg 93%
    21:00 +11°C° 0.1 mm 6 mps 770 mmHg 93%
    22:00 +11°C° 0.2 mm 6 mps 770 mmHg 93%
    23:00 +11°C° 0.2 mm 6 mps 770 mmHg 93%

    21 December, Thursday

    Time Temperature Precipitation Wind Pressure Humidity
    00:00 +11°C° 0.2 mm 6 mps 770 mmHg 93%
    01:00 +10°C° 0.4 mm 5 mps 770 mmHg 92%
    02:00 +10°C° 0.4 mm 5 mps 770 mmHg 92%
    03:00 +9°C° 0.4 mm 5 mps 770 mmHg 92%
    04:00 +9°C° 0.5 mm 5 mps 771 mmHg 90%
    05:00 +8°C° 0.5 mm 5 mps 771 mmHg 89%
    06:00 +7°C° 0.5 mm 5 mps 772 mmHg 87%
    07:00 +7°C° 0.2 mm 5 mps 772 mmHg 86%
    08:00 +7°C° 0.2 mm 4 mps 773 mmHg 85%
    09:00 +6°C° 0.2 mm 4 mps 774 mmHg 84%
    10:00 +6°C° 0 mm 4 mps 774 mmHg 83%
    11:00 +7°C° 0 mm 4 mps 775 mmHg 81%
    12:00 +7°C° 0 mm 4 mps 775 mmHg 79%
    13:00 +7°C° 0 mm 4 mps 776 mmHg 80%
    14:00 +6°C° 0 mm 4 mps 776 mmHg 81%
    15:00 +6°C° 0 mm 4 mps 776 mmHg 82%
    16:00 +5°C° 0 mm 4 mps 777 mmHg 83%
    17:00 +5°C° 0 mm 4 mps 777 mmHg 85%
    18:00 +4°C° 0 mm 3 mps 777 mmHg 87%
    19:00 +4°C° 0 mm 3 mps 778 mmHg 87%
    20:00 +4°C° 0 mm 3 mps 778 mmHg 87%
    21:00 +4°C° 0 mm 3 mps 778 mmHg 88%
    22:00 +3°C° 0 mm 3 mps 779 mmHg 88%
    23:00 +3°C° 0 mm 3 mps 779 mmHg 88%
    Show more